Theta_e
332 329 320 316 307 304 298 301 304 305 306 312 313 312 314 316 311 306 332 337 340 340 344 345 345 344 343 344 345 345 344 343 341 340 339 338 338 337 337 337 337 338 339 343 340 337 335 334 333
328 319 317 309 302 297 298 303 303 306 311 314 313 312 313 312 324 326 330 338 341 341 343 343 343 344 342 343 344 345 345 343 342 340 339 337 336 334 334 335 336 336 336 337 339 337 335 333 332
326 318 313 305 299 297 299 303 305 308 312 309 313 316 315 318 325 328 334 340 341 341 343 343 343 345 343 342 342 345 345 344 342 340 338 336 334 333 333 333 335 336 335 336 338 337 335 333 331
317 314 309 303 300 303 303 304 307 308 310 313 312 310 319 326 328 332 339 341 341 341 342 342 344 344 342 342 342 344 345 343 340 339 337 335 333 333 333 333 333 332 333 333 334 339 336 334 332
313 310 302 300 301 304 305 306 308 307 308 312 312 310 314 326 331 337 339 340 339 340 341 343 343 344 343 341 341 342 343 341 340 339 338 335 335 332 331 332 331 331 330 330 331 332 333 335 333
310 307 299 297 300 304 306 307 308 308 310 313 311 312 315 328 332 335 339 339 340 340 341 342 338 340 341 341 342 342 344 342 340 340 340 338 337 335 332 331 330 329 329 328 329 329 330 330 331
307 303 299 298 299 303 306 308 308 308 309 309 314 309 317 325 332 336 337 338 339 340 340 341 341 339 334 337 338 339 340 341 340 340 341 339 338 338 337 336 334 331 330 329 329 329 328 329 329
306 304 299 300 300 302 306 307 310 310 310 316 317 309 312 324 333 335 335 336 337 338 338 339 339 339 338 337 331 333 336 337 337 336 336 334 334 335 335 333 334 334 334 333 333 332 331 329 328
310 301 297 299 301 304 306 307 310 313 312 315 318 314 319 327 332 331 331 331 333 334 336 337 337 337 337 335 332 329 330 331 332 332 330 329 336 336 335 331 331 334 336 336 335 335 334 332 330
303 300 300 303 305 305 306 307 308 311 312 313 317 321 323 326 329 327 327 326 329 331 333 335 335 335 335 334 334 333 333 334 333 333 333 333 332 331 331 328 326 330 331 333 335 336 333 329 331
302 300 303 302 304 306 306 306 309 309 307 311 314 317 322 323 324 327 328 329 330 332 332 333 334 334 334 334 334 333 331 331 331 331 331 331 330 330 329 331 332 333 325 331 331 331 332 332 332
299 302 303 305 305 305 305 306 307 308 309 311 316 320 322 322 323 325 326 327 327 329 331 332 333 333 333 334 333 332 331 330 329 329 329 329 328 327 327 327 328 330 331 330 329 328 328 328 329
301 302 304 304 304 303 304 303 304 307 307 312 318 320 321 322 323 324 325 326 327 328 330 331 332 332 332 331 332 332 331 330 330 329 329 328 327 326 326 325 325 326 328 328 328 327 326 326 325
303 303 302 304 303 304 303 302 304 305 310 312 317 318 320 320 322 322 323 325 325 327 329 331 331 332 332 332 332 332 332 332 331 330 330 328 328 327 326 325 325 325 325 326 326 326 326 326 325
303 299 300 301 302 302 304 300 301 305 308 310 313 316 317 319 321 322 324 324 326 327 328 328 329 331 331 331 331 331 332 331 331 330 330 329 328 327 327 326 325 325 325 325 323 324 324 323 323
299 298 293 298 301 302 302 295 302 304 304 307 309 312 314 316 319 321 322 323 324 325 325 325 326 328 329 330 330 330 331 331 330 330 330 329 328 328 327 326 326 327 326 324 323 322 321 320 320
295 289 291 296 301 300 299 296 301 302 303 303 304 306 307 308 309 310 314 317 320 321 321 321 321 323 326 328 329 329 329 329 331 330 330 330 329 328 328 327 328 328 328 327 324 323 322 321 321
289 290 293 293 296 297 296 297 300 300 300 301 301 301 302 303 306 309 309 309 309 310 312 315 314 313 314 315 315 316 317 323 327 329 329 330 330 329 329 328 328 328 327 326 326 323 323 323 322
293 290 289 292 296 294 294 295 299 300 299 300 301 301 302 303 306 305 306 307 307 307 307 308 309 311 312 312 311 311 312 313 315 319 322 325 327 328 328 328 327 328 328 328 327 326 323 321 323
293 290 289 293 295 293 292 292 295 297 297 299 299 300 301 302 304 306 305 305 305 306 306 307 308 308 309 309 310 312 312 313 314 316 319 323 324 324 324 325 326 328 328 327 327 327 325 326 324
292 291 289 290 293 292 289 289 291 295 297 298 299 301 302 303 304 305 304 304 304 304 304 306 306 306 306 306 307 310 312 313 314 317 318 316 316 319 321 326 327 328 327 327 327 327 325 324 324
289 294 293 292 290 285 288 280 288 290 291 293 296 298 300 301 302 302 303 303 303 304 304 305 304 303 303 303 305 308 311 311 314 315 312 309 309 311 313 315 318 321 324 325 324 327 326 324 320
291 295 294 292 289 287 286 283 285 287 287 290 293 294 295 297 298 299 300 301 302 302 302 301 300 299 298 299 301 305 307 310 313 310 309 306 306 305 306 308 311 314 315 316 318 319 318 322 322
296 292 291 288 286 278 284 283 279 284 288 290 292 294 295 295 295 296 297 298 298 298 298 297 297 296 295 296 297 301 306 308 309 308 307 306 303 302 301 302 304 307 309 311 311 311 311 313 313
293 288 281 279 277 276 281 281 282 287 290 291 292 294 294 294 294 295 295 296 296 296 295 295 295 295 293 294 294 296 299 303 307 308 306 303 302 299 299 299 301 303 303 304 305 305 306 306 308
290 288 282 275 275 277 283 279 284 290 293 292 292 292 293 294 295 295 295 295 295 294 294 293 293 293 292 292 292 292 293 295 298 299 301 302 301 299 296 296 296 297 297 298 299 300 298 299 300
290 287 289 281 275 275 279 282 286 288 289 290 290 290 292 294 294 295 295 294 294 293 293 293 292 292 291 290 290 290 290 291 293 293 293 294 295 294 292 293 293 293 294 295 295 295 295 296 296
291 293 284 281 272 271 277 278 282 285 287 288 288 290 292 292 293 294 294 294 294 293 293 292 291 291 291 289 288 288 288 288 289 289 290 290 291 290 290 290 290 290 291 292 292 292 292 292 291
288 287 288 286 280 275 272 278 285 287 288 288 288 290 291 291 292 293 294 294 293 293 292 291 290 290 290 289 288 287 287 287 287 287 287 288 288 288 287 288 288 288 289 289 290 290 289 289 288
290 288 288 279 277 278 278 281 288 288 289 288 289 292 291 292 293 294 294 293 293 292 291 291 290 289 289 289 287 286 285 285 284 285 285 286 286 286 286 286 286 286 287 288 288 287 287 286 286
Wind_Speed
4 7 2 3 5 5 1 3 2 3 2 1 3 4 4 3 2 2 1 6 9 13 10 11 11 11 11 9 9 10 11 11 10 10 9 8 7 7 7 7 9 9 7 9 10 9 10 11 12
3 4 3 3 5 3 2 2 6 4 5 7 4 3 3 2 1 3 7 6 11 13 11 10 10 11 10 9 8 10 11 11 10 9 8 7 6 6 6 6 7 8 7 6 6 9 9 10 10
4 2 3 4 3 4 4 4 5 3 7 4 4 3 3 2 1 7 1 11 11 10 8 9 10 9 10 8 6 9 11 10 9 7 7 6 6 6 6 6 7 7 6 6 6 8 9 8 8
2 3 4 4 3 3 4 5 4 7 2 3 4 6 1 1 5 3 9 12 12 8 7 9 9 8 8 7 6 6 10 8 7 6 6 6 5 5 5 4 3 4 6 5 5 7 6 8 6
4 3 4 4 1 1 1 4 7 5 4 3 4 5 2 0 1 8 11 11 12 9 7 7 8 6 6 6 6 6 7 7 5 5 5 5 6 4 4 4 4 3 2 3 3 5 6 6 3
3 3 4 4 2 1 3 5 6 3 3 3 5 5 3 1 6 9 11 11 9 10 7 7 7 6 6 7 6 5 8 6 4 5 7 7 6 5 4 4 3 2 1 1 1 2 3 3 3
5 4 5 5 5 2 5 6 6 5 5 4 6 6 1 2 6 10 10 10 9 9 9 8 8 7 7 7 8 7 6 5 5 4 7 8 6 7 6 5 4 4 3 2 2 1 1 2 3
4 5 5 3 6 5 5 5 5 4 2 1 3 5 4 5 11 10 8 8 8 7 8 9 8 7 6 5 7 7 7 7 7 6 6 5 5 5 6 6 6 6 5 5 4 4 4 4 4
1 5 3 7 7 5 5 4 1 2 5 0 2 3 1 9 12 9 5 6 6 6 8 8 8 7 7 6 6 6 7 6 6 6 6 4 3 4 5 5 6 7 6 6 6 6 7 6 4
5 3 7 6 3 5 7 4 8 5 3 1 2 2 5 10 11 11 10 10 10 12 11 10 9 9 7 5 6 6 6 5 5 5 6 4 5 4 5 5 6 7 7 7 6 6 7 6 4
1 3 2 1 2 4 7 4 3 8 2 6 8 7 8 7 8 9 9 8 12 9 7 10 10 9 9 7 6 4 4 4 5 7 7 6 4 4 4 3 4 5 6 5 5 5 4 5 5
3 2 1 1 1 4 7 7 5 5 5 1 6 6 9 11 13 12 11 9 4 5 7 7 9 8 8 6 6 6 5 5 5 6 8 5 4 5 5 4 5 5 4 6 6 4 6 6 7
2 1 3 3 6 5 6 3 3 5 1 3 7 8 11 9 10 5 5 4 6 7 8 10 8 9 8 8 6 6 7 6 7 7 8 7 6 6 6 6 5 6 5 6 6 6 6 6 7
3 3 2 3 2 3 4 1 2 1 3 4 6 8 8 9 7 3 6 9 9 8 10 8 10 10 8 9 9 7 6 7 7 7 7 9 7 7 7 6 7 7 7 6 7 7 6 6 6
2 0 3 1 0 2 3 2 6 2 3 4 5 5 6 8 5 11 8 9 9 8 5 9 8 9 10 10 9 7 7 6 7 7 9 10 9 9 9 7 7 8 7 8 5 7 6 6 5
5 4 1 3 3 2 4 7 7 5 5 6 5 6 7 8 9 6 8 10 7 6 8 5 6 8 10 10 7 6 6 6 7 7 7 10 10 10 9 8 8 8 6 6 5 5 5 5 5
5 2 2 5 4 3 3 6 2 3 5 7 6 7 6 7 9 8 12 10 8 8 8 9 7 8 8 7 6 6 7 7 7 6 6 9 10 11 10 9 9 9 7 7 6 5 6 5 6
5 3 4 5 4 3 1 8 6 1 4 7 6 7 6 7 15 10 9 7 7 8 7 7 4 5 5 3 2 2 3 5 5 7 7 9 8 10 10 9 9 8 7 7 7 8 8 6 8
4 3 3 3 3 1 5 7 13 2 3 7 8 8 9 11 12 8 7 8 7 6 6 5 5 5 4 2 2 2 3 2 3 4 7 8 8 9 9 8 8 8 9 10 10 8 8 7 5
3 4 3 5 2 1 5 9 11 4 6 8 9 10 12 8 12 13 7 6 5 3 5 6 6 4 3 2 1 1 1 1 3 3 4 5 5 7 8 9 9 9 8 11 11 11 4 5 7
4 6 4 4 4 1 5 8 6 8 3 5 8 12 11 16 16 11 6 8 5 7 7 6 5 5 3 3 1 1 1 2 2 2 2 1 3 3 4 5 7 7 7 7 9 9 9 6 6
5 6 6 3 3 4 2 8 5 5 5 5 11 12 11 8 7 7 7 7 8 9 5 6 5 5 4 3 3 4 3 3 2 1 1 1 2 2 3 4 3 2 2 6 5 3 4 4 5
5 7 7 3 2 2 1 4 7 2 5 11 10 8 8 7 7 8 7 7 7 4 6 4 4 3 1 1 2 3 3 3 2 2 2 1 1 2 3 2 2 1 2 2 3 3 4 3 4
7 6 5 4 3 2 7 8 4 5 7 5 2 4 7 8 7 6 5 5 4 2 4 4 4 3 1 1 2 3 4 5 4 3 3 3 1 1 2 2 1 1 1 2 3 2 3 3 3
4 6 2 1 0 6 2 4 3 6 9 6 6 7 9 8 7 7 7 6 3 2 3 3 3 3 2 2 3 3 4 5 6 4 3 3 3 2 2 2 2 2 1 2 2 2 2 1 2
6 5 5 7 5 3 2 7 6 8 8 5 7 6 6 7 6 7 6 4 3 3 4 4 4 4 4 3 4 3 4 3 3 3 2 3 4 2 2 2 2 2 3 1 1 1 0 1 2
5 6 3 6 4 4 5 7 9 6 9 5 4 4 6 5 6 6 4 1 3 4 5 5 4 4 4 4 3 4 4 4 4 4 3 3 2 2 3 3 3 3 3 3 3 3 3 3 3
5 7 2 2 3 4 4 6 7 4 5 4 3 5 5 5 7 5 4 3 4 5 5 5 5 6 6 6 5 4 4 4 4 4 5 5 4 4 4 4 4 4 3 4 4 3 3 4 3
3 3 3 4 5 5 2 6 8 9 6 5 3 3 2 4 5 5 4 5 5 5 6 6 7 8 7 5 5 6 6 5 4 4 5 4 3 4 4 3 3 4 4 4 4 4 5 6 5
3 7 6 5 3 3 2 12 5 7 7 6 5 5 2 3 6 4 3 6 5 7 6 7 6 8 7 7 6 6 5 6 6 6 5 4 5 4 5 4 5 5 5 4 5 6 5 6 7
Wind_Direction
18 134 97 59 68 65 126 170 133 129 143 156 87 137 159 57 150 162 29 176 145 150 157 158 152 154 153 149 156 155 149 141 135 128 121 121 119 113 106 96 94 92 86 91 101 103 97 87 86
124 121 52 81 89 93 239 204 164 173 143 125 87 80 64 97 130 117 122 188 156 153 160 161 152 153 154 151 157 173 160 150 145 138 132 127 125 128 126 114 107 102 98 82 97 110 99 89 86
128 57 91 91 106 163 170 196 158 118 144 161 109 56 133 132 136 165 200 152 148 156 159 157 150 155 156 154 156 171 171 153 149 149 143 143 128 131 119 131 133 112 101 82 67 132 113 101 89
124 26 45 84 142 206 165 173 138 136 224 127 129 86 34 291 157 182 143 145 146 150 147 150 149 160 165 158 160 162 156 151 158 159 155 157 140 134 118 119 114 97 99 80 55 59 116 109 92
35 61 74 80 156 153 138 155 145 150 145 141 159 155 128 13 26 134 141 147 152 154 147 153 150 152 161 169 163 174 172 168 171 181 176 178 160 155 151 155 140 119 93 96 65 27 37 61 61
50 95 80 153 197 89 96 162 141 135 155 156 103 125 168 126 141 154 149 151 157 159 157 159 165 163 165 171 176 193 173 171 193 230 214 185 184 175 179 181 191 184 196 265 94 32 12 8 357
107 84 150 139 150 128 167 158 156 155 146 214 159 112 175 199 174 155 157 150 161 169 167 173 176 180 179 180 183 188 191 187 189 237 263 191 184 185 197 206 207 208 219 224 236 247 301 300 311
103 92 112 188 173 189 161 159 147 124 178 71 168 167 184 193 159 147 153 153 159 176 183 184 184 185 185 190 198 199 204 205 213 224 266 181 182 208 214 223 230 248 242 232 227 218 238 265 286
163 73 157 182 162 170 161 131 133 104 111 336 306 156 329 125 138 140 149 165 172 187 197 194 190 195 194 196 203 210 213 215 219 221 223 209 210 221 229 231 227 242 253 245 233 225 228 243 266
72 104 191 173 185 171 167 155 155 125 118 250 302 52 94 128 157 172 182 189 196 193 198 196 196 199 197 202 204 209 215 217 219 223 220 215 215 220 226 236 236 242 245 256 260 251 247 241 252
71 127 173 45 160 153 144 125 143 124 212 218 197 167 155 155 170 190 208 208 210 210 204 200 199 201 198 200 196 205 209 213 221 222 219 220 221 227 230 237 237 237 235 244 248 253 246 241 244
89 55 100 59 67 126 156 132 147 184 181 279 208 156 166 173 185 197 205 218 226 216 223 215 211 209 215 212 206 204 204 208 219 223 221 218 223 229 235 234 236 232 229 237 240 243 250 250 250
59 21 46 68 79 97 115 89 158 225 279 44 128 149 184 190 194 197 210 215 213 219 221 222 207 215 216 217 223 221 218 214 219 219 222 216 224 229 230 235 233 233 231 232 238 238 242 246 249
350 25 37 12 83 92 118 134 114 37 120 104 157 187 193 213 199 181 206 226 224 224 221 213 213 216 212 219 219 225 225 227 224 225 226 219 225 228 229 236 236 237 227 232 235 238 241 248 249
29 86 354 349 166 111 131 318 218 168 132 159 198 209 213 228 210 223 221 227 226 229 217 219 218 210 213 220 221 223 228 224 232 232 224 223 221 229 229 234 236 239 227 231 225 236 236 242 238
56 49 115 283 147 23 116 247 252 191 151 204 215 230 235 236 232 238 240 238 229 229 225 217 210 213 217 214 214 219 225 227 236 234 230 226 225 226 227 232 236 237 229 218 209 212 217 223 222
17 218 272 309 227 91 136 239 309 194 183 235 230 235 249 285 272 249 246 238 238 230 230 237 211 217 218 215 206 217 225 230 239 236 237 238 228 227 227 230 235 230 230 226 222 204 209 209 217
179 187 238 237 6 45 69 260 251 58 185 239 264 267 264 259 262 254 254 257 249 231 235 236 203 193 190 193 207 219 241 245 240 240 240 243 242 236 231 235 231 223 225 227 223 215 204 213 221
135 133 211 300 340 360 225 252 269 203 237 266 263 266 261 255 266 251 248 254 256 236 224 205 186 190 164 164 184 207 217 215 245 243 249 249 249 246 237 235 230 220 218 225 227 232 219 221 207
126 142 221 288 11 133 299 264 269 231 227 214 234 252 250 254 265 266 242 236 223 253 217 206 207 184 182 174 181 252 198 233 267 261 266 251 263 266 257 248 242 225 223 226 228 218 211 222 183
165 171 179 223 325 89 329 268 233 264 215 236 247 242 251 243 253 266 264 242 225 227 207 206 191 188 190 184 189 232 292 286 270 255 241 270 302 318 298 256 237 226 221 231 227 214 211 221 203
176 180 163 176 74 240 30 287 298 290 286 278 263 244 252 259 263 268 264 256 228 234 186 194 182 177 184 179 201 203 200 210 218 212 175 253 328 307 307 303 299 276 246 251 256 235 231 219 228
201 149 162 133 166 343 296 285 272 316 278 249 265 291 301 297 279 277 276 264 265 207 190 173 156 144 128 259 256 233 237 244 247 221 218 231 296 350 341 335 318 307 291 293 268 229 226 219 234
140 91 61 65 114 281 203 190 226 190 220 295 266 356 328 324 318 309 309 335 330 35 125 142 157 167 171 230 266 255 247 236 218 218 226 224 220 287 325 336 338 319 312 299 281 275 249 232 244
175 141 101 56 185 227 304 222 272 269 251 234 298 317 316 311 320 322 329 330 336 141 143 155 165 215 231 260 261 267 265 260 251 239 227 223 225 219 246 306 305 288 267 256 267 262 240 233 231
191 178 179 193 199 271 45 242 252 221 271 281 286 283 283 323 334 332 335 332 291 199 186 199 204 226 221 239 263 279 290 277 269 265 240 233 229 216 198 239 274 303 284 265 269 241 179 213 179
187 208 157 89 22 57 221 278 285 268 283 319 333 341 324 328 342 338 333 274 233 232 232 220 226 247 250 247 251 250 252 255 256 258 260 255 247 223 205 214 215 216 222 206 197 197 190 179 171
173 162 124 22 165 233 252 264 233 239 227 332 6 305 340 340 347 335 303 264 231 230 237 225 225 232 238 231 225 234 240 245 252 256 250 243 241 225 212 207 215 216 206 205 191 178 167 155 140
143 185 197 140 156 188 277 248 211 213 210 203 243 249 254 316 313 303 274 256 243 236 225 229 231 229 229 219 229 232 233 233 235 235 240 234 243 242 238 232 231 226 210 204 189 175 161 156 150
250 194 180 143 255 231 174 257 182 197 189 201 222 275 353 267 255 270 286 261 254 253 245 241 241 242 228 221 220 230 238 223 225 230 230 223 232 224 222 222 225 224 221 205 189 177 172 167 163